Showing default

COSMOS 2460 (GLONASS), 36402

Orbit data source: Space-Track

COSMOS 2460 (GLONASS), 36402 is a Commonwealth of Independent States-origin payload satellite in MEO that was launched on Mon, 01 Mar 2010 UTC via a PROTON-M/DM-2 launch vehicle from the Tyuratam Missile And Space Complex (TTMTR). Payload-class satellites include a variety of spacecraft equipped with specific instruments for various scientific and technological missions. These include communications satellites like Starlink; space stations such as the ISS; scientific satellites like the Hubble; Earth observation satellites from companies like Planet Labs, Umbra, and HawkEye 360; GPS; miniature CubeSats for education and research; and military/defense satellites.

Loading next visibility...
Identifier
36402, 2010-007C
Orbit
MEO
Country
Flag of CISCIS
Related business
Manufacturer
Resehetnev ISS
Mission
Operational Defense Navigation
Bus & Motor
URAGAN, Unknown motor
Mass
1,450 kg wet, ~1,200 kg dry
Launch date (UTC)
2010-03-01 (16 years ago)
Launch vehicle
PROTON-M/DM-2
Launch site
Tyuratam Missile And Space Complex (TTMTR)
Object type
Payload
Rocket body
Debris
Shape & HBR
Cyl + 1 Ant + 2 Pan, 3.9 m
Radar Cross Section
8.467 m², Large (>1 m²)

Expand to show TLE details & history
Last TLE update: 1 day ago

TLE from 1 day ago
0 COSMOS 2460 (GLONASS)
1 36402U 10007C   25287.48970097 -.00000036  00000-0  00000-0 0  9991
2 36402  65.5606 322.7754 0002864 240.8272 291.9823  2.13106164121495
Epoch: 2025-10-14T11:45Z
TLE epoch observation values (Epoch: 2025-10-14T11:45:10.163Z)
Latitude
6.58098°
Longitude
-59.78258°
Altitude
19,126.805 km
Speed
3.954 km/s
True Right ascension
09h 19m 08s
True Declination
6° 34' 12"
Sunlit
Object was in daylight at epoch
Visualization orbit readout
Latitude
Unknown
Longitude
Unknown
Altitude
Unknown
Speed
Unknown
Apparent Right ascension
Unknown
Apparent Declination
Unknown
Sunlit
N/A
Visualization observer readout
Local Sidereal Time
07:04:14
Azimuth
Unknown
Elevation
Unknown
Doppler factor
Unknown
Orbital elements
Apogee altitude
19,136.456 km
Perigee altitude
19,121.846 km
Semi-major axis
25,507.288 km
Eccentricity
0.00029
Inclination
65.5606°
RAAN
322.7754°
Arg. of periapsis
240.8272°
True anomaly
291.95186°
Mean anomaly
291.9823°
Eccentric anomaly
291.96708°
Mean motion
0.53278 °/min
Orbital period
675.7 mins
BSTAR
0
Loading maneuver chart data...
Computing Atmospheric mass density...
Loading historical data...
Loading historical data...
Loading historical data...
Loading historical data...
Loading historical data...
Loading historical data...
Loading historical data...

Documentation

Showing up to 5 results
|